User: anonymous   Login
Location: Unspecified
(0.0000°N, 0.0000°E)
Time: 00:35:22
(UTC+01:00)
Language:

deb Delta 98 - Orbit

View from above orbital plane
View from above orbital plane
View from above satellite
View from above satellite

Ground track
Ground track

The orbit data is extracted from the following two-line orbital elements,

1 07145U 73086DK  18018.31755257 -.00000187  00000-0 -20411-2 0  9992
2 07145 101.9802 149.5055 0315553 147.6054 273.6085 11.81408275906304
Epoch (UTC): 18 January 2018 07:37:16
Eccentricity: 0.0315553
inclination: 101.9802°
perigee height: 1508 km
apogee height: 2022 km
right ascension of ascending node: 149.5055°
argument of perigee: 147.6054°
revolutions per day: 11.81408275
mean anomaly at epoch: 273.6085°
orbit number at epoch: 90630

The dashed part of the orbit path shows where the satellite is in the earth's shadow,  

DLR